Regional Weather Roundup
Issued by NWS

Home | Current Version | Previous Version | Graphics & Text | Print | Product List | Glossary On
Versions: 1 2 3 4 5 6 7 8 9 10 11 12 13 14 15 16 17 18 19 20 21 22 23 24 25 26 27 28 29 30 31 32 33 34 35 36 37 38 39 40 41 42 43 44 45 46 47 48 49 50
000
ASUS43 KBIS 301310
RWRND

NORTH DAKOTA REGIONAL WEATHER ROUNDUP
NATIONAL WEATHER SERVICE BISMARCK ND
800 AM CDT THU JUL 30 2015

NOTE: "FAIR" INDICATES FEW OR NO CLOUDS BELOW 12,000 FEET WITH NO
SIGNIFICANT WEATHER AND/OR OBSTRUCTIONS TO VISIBILITY.


NDZ001>003-009>011-017-301400-
NORTHWEST NORTH DAKOTA

CITY           SKY/WX    TMP DP  RH WIND       PRES   REMARKS
WILLISTON      SUNNY     60  52  74 CALM      30.16R
MINOT          MOSUNNY   62  52  69 SW10      30.09R
MINOT AFB      MOSUNNY   63  59  87 W8        30.08R
$$

NDZ018>021-031>035-040>046-301400-
SOUTHWEST NORTH DAKOTA

CITY           SKY/WX    TMP DP  RH WIND       PRES   REMARKS
BISMARCK       SUNNY     62  50  64 W3        30.15R
DICKINSON      SUNNY     59  46  62 NW6       30.17R
GARRISON         N/A     54  52  93 W5        30.13R
HETTINGER ARPT SUNNY     58  49  72 NW3       30.21R
$$

NDZ004>008-012>016-024-026-027-054-301400-
NORTHEAST NORTH DAKOTA

CITY           SKY/WX    TMP DP  RH WIND       PRES   REMARKS
GRAND FORKS    PTSUNNY   66  57  72 W12       29.99R
GRND FRKS AFB  MOSUNNY   67  57  71 NW12      30.01R
DEVILS LAKE    CLOUDY    63  52  67 W12       30.04F
$$

NDZ022-023-025-028>030-036>039-047>053-301400-
SOUTHEAST NORTH DAKOTA

CITY           SKY/WX    TMP DP  RH WIND       PRES   REMARKS
FARGO          SUNNY     64  56  75 W13       30.03R
JAMESTOWN      SUNNY     63  54  72 NW10      30.10R
$$



USA.gov is the U.S. government's official web portal to all federal, state and local government web resources and services.